GW3608 Weather Reports


Display with metric or nautical units.
time (UTC)temp
F
wind
direction
speed
MPH
gust
MPH
rain 1hr
in
rain 24hr
in
rain mn
in
humidity
%
barometer
mb
20260831031512 64 218 0.0 0.0 0.00 0.00 0.00 87 1022.0
20260831030016 64 218 0.0 0.0 0.00 0.00 0.00 86 1022.0
20260831024506 64 218 0.0 0.0 0.00 0.00 0.00 85 1022.0
20260831023008 65 218 0.0 0.0 0.00 0.00 0.00 85 1022.0
20260831021512 65 218 0.0 0.0 0.00 0.00 0.00 84 1022.1
20260831020015 65 171 0.0 0.0 0.00 0.00 0.00 83 1021.9
20260831014523 65 229 0.0 0.0 0.00 0.00 0.00 83 1021.9
20260831013006 65 213 0.0 0.0 0.00 0.00 0.00 82 1021.8
20260831011514 66 179 0.0 0.0 0.00 0.00 0.00 81 1021.7
20260831010016 66 181 0.0 0.0 0.00 0.00 0.00 81 1021.5
20260831004519 66 286 0.0 0.0 0.00 0.00 0.00 82 1021.4
20260831003015 66 286 0.0 0.0 0.00 0.00 0.00 81 1021.1
20260831001508 66 9 0.0 0.0 0.00 0.00 0.00 80 1020.8
20260831000013 66 105 0.0 0.0 0.00 0.00 0.00 80 1020.7
20260830234517 67 17 0.0 0.0 0.00 0.00 0.00 80 1020.4
20260830233020 67 290 0.0 0.0 0.00 0.00 0.00 80 1020.5
20260830231530 67 129 0.0 0.0 0.00 0.00 0.00 80 1020.5
20260830230015 67 196 0.0 0.0 0.00 0.00 0.00 80 1020.5
20260830224512 67 225 0.0 0.0 0.00 0.00 0.00 80 1020.5
20260830223024 68 225 0.0 0.0 0.00 0.00 0.00 79 1020.4
20260830221526 68 148 0.0 0.0 0.00 0.00 0.00 78 1020.4
20260830220026 68 228 0.0 0.0 0.00 0.00 0.00 78 1020.5
20260830214512 68 229 0.0 0.0 0.00 0.00 0.00 78 1020.4
20260830213018 68 184 0.0 0.0 0.00 0.00 0.00 78 1020.4
20260830211525 68 220 0.0 0.0 0.00 0.00 0.00 77 1020.5
20260830210026 68 223 0.0 0.0 0.00 0.00 0.00 77 1020.5
20260830204528 68 78 0.0 0.0 0.00 0.00 0.00 77 1020.4
20260830203028 68 352 0.0 0.0 0.00 0.00 0.00 76 1020.7
20260830201538 69 297 0.0 0.0 0.00 0.00 0.00 76 1020.5
20260830200003 69 10 0.0 0.0 0.00 0.00 0.00 73 1020.3
20260830194508 70 352 0.0 0.0 0.00 0.00 0.00 70 1020.5
20260830193011 72 59 0.0 0.0 0.00 0.00 0.00 70 1020.6
20260830191519 73 248 0.0 0.0 0.00 0.00 0.00 70 1020.2
20260830190012 74 209 0.0 0.0 0.00 0.00 0.00 70 1020.2
20260830184509 74 240 0.0 0.0 0.00 0.00 0.00 67 1020.2
20260830183010 75 168 0.0 0.0 0.00 0.00 0.00 66 1020.2
20260830181516 75 274 0.0 0.0 0.00 0.00 0.00 66 1020.4
20260830180031 76 225 0.0 0.0 0.00 0.00 0.00 63 1020.3
20260830174503 75 204 0.0 0.0 0.00 0.00 0.00 68 1020.5
20260830173009 76 211 0.0 0.0 0.00 0.00 0.00 68 1020.7
20260830171510 76 254 0.0 0.0 0.00 0.00 0.00 67 1020.7
20260830170016 76 202 0.0 0.0 0.00 0.00 0.00 68 1020.9
20260830164532 74 246 0.0 0.0 0.00 0.00 0.00 67 1020.9
20260830163009 74 188 0.0 0.0 0.00 0.00 0.00 69 1021.0
20260830161509 73 164 0.0 0.0 0.00 0.00 0.00 68 1021.4
20260830160016 73 262 0.0 0.0 0.00 0.00 0.00 69 1021.5
20260830154522 72 246 0.0 0.0 0.00 0.00 0.00 71 1021.6
20260830153025 70 235 0.0 0.0 0.00 0.00 0.00 74 1021.7
20260830151516 68 167 0.0 0.0 0.00 0.00 0.00 74 1021.8
20260830150011 68 171 0.0 0.0 0.00 0.00 0.00 73 1021.8
20260830144518 67 253 0.0 0.0 0.00 0.00 0.00 75 1021.8
20260830143025 66 277 0.0 0.0 0.00 0.00 0.00 76 1021.7
20260830141528 66 225 0.0 0.0 0.00 0.00 0.00 75 1021.4
20260830140009 66 177 0.0 0.0 0.00 0.00 0.00 74 1021.7
20260830134515 65 225 0.0 0.0 0.00 0.00 0.00 77 1021.6
20260830133021 64 253 0.0 0.0 0.00 0.00 0.00 78 1021.8
20260830131526 63 260 0.0 0.0 0.00 0.00 0.00 80 1022.0
20260830130030 63 253 0.0 0.0 0.00 0.00 0.00 81 1022.1
20260830124515 63 273 0.0 0.0 0.00 0.00 0.00 83 1022.1
20260830123018 61 349 0.0 0.0 0.00 0.00 0.00 85 1022.0
20260830121528 60 232 0.0 0.0 0.00 0.00 0.00 85 1022.1
20260830120030 60 232 0.0 0.0 0.00 0.00 0.00 86 1022.0
20260830114534 59 232 0.0 0.0 0.00 0.00 0.00 87 1022.2
20260830113014 58 232 0.0 0.0 0.00 0.00 0.00 89 1022.4
20260830111524 58 232 0.0 0.0 0.00 0.00 0.00 88 1022.6
20260830110004 57 232 0.0 0.0 0.00 0.00 0.00 90 1022.6
20260830104508 56 232 0.0 0.0 0.00 0.00 0.00 91 1022.5
20260830103013 57 232 0.0 0.0 0.00 0.00 0.00 91 1022.5
20260830101521 56 232 0.0 0.0 0.00 0.00 0.00 90 1022.4
20260830100004 56 232 0.0 0.0 0.00 0.00 0.00 90 1022.5
20260830094503 57 232 0.0 0.0 0.00 0.00 0.00 89 1022.7
20260830093008 57 232 0.0 0.0 0.00 0.00 0.00 89 1022.8
20260830091514 58 232 0.0 0.0 0.00 0.00 0.00 89 1022.8
20260830090036 58 232 0.0 0.0 0.00 0.00 0.00 89 1022.8
20260830084504 58 232 0.0 0.0 0.00 0.00 0.00 89 1022.8
20260830083021 58 232 0.0 0.0 0.00 0.00 0.00 89 1023.0
20260830081508 58 232 0.0 0.0 0.00 0.00 0.00 88 1023.1
20260830080016 58 232 0.0 0.0 0.00 0.00 0.00 88 1023.2
20260830074527 59 232 0.0 0.0 0.00 0.00 0.00 88 1023.2
20260830073004 58 232 0.0 0.0 0.00 0.00 0.00 89 1023.2
20260830071512 59 232 0.0 0.0 0.00 0.00 0.00 88 1023.3
20260830070015 58 232 0.0 0.0 0.00 0.00 0.00 87 1023.2
20260830064526 59 232 0.0 0.0 0.00 0.00 0.00 87 1023.0
20260830063030 59 232 0.0 0.0 0.00 0.00 0.00 87 1023.2
20260830061512 59 232 0.0 0.0 0.00 0.00 0.00 87 1023.1
20260830060011 59 232 0.0 0.0 0.00 0.00 0.00 87 1023.1
20260830054517 59 232 0.0 0.0 0.00 0.00 0.00 87 1023.3
20260830053024 59 232 0.0 0.0 0.00 0.00 0.00 86 1023.1
20260830051530 59 262 0.0 0.0 0.00 0.00 0.00 86 1023.3
20260830050008 59 262 0.0 0.0 0.00 0.00 0.00 87 1023.2
20260830044514 59 262 0.0 0.0 0.00 0.00 0.00 88 1023.4
20260830043018 59 262 0.0 0.0 0.00 0.00 0.00 88 1023.4
20260830041525 58 262 0.0 0.0 0.00 0.00 0.00 88 1023.4
20260830040029 58 262 0.0 0.0 0.00 0.00 0.00 88 1023.3
20260830034512 58 262 0.0 0.0 0.00 0.00 0.00 88 1023.0
20260830033015 58 262 0.0 0.0 0.00 0.00 0.00 88 1023.1